Year,Month,Day,Hour,Minute,Value (Times are PST for temperature in C)
2007,01,15,00,00,-4.10
2007,01,15,00,01,-4.20
2007,01,15,00,02,-4.20
2007,01,15,00,03,-4.20
2007,01,15,00,04,-4.20
2007,01,15,00,05,-4.20
2007,01,15,00,06,-4.20
2007,01,15,00,07,-4.20
2007,01,15,00,08,-4.20
2007,01,15,00,09,-4.20
2007,01,15,00,10,-4.20
2007,01,15,00,11,-4.20
2007,01,15,00,12,-4.20
2007,01,15,00,13,-4.20
2007,01,15,00,14,-4.20
2007,01,15,00,15,-4.30
2007,01,15,00,16,-4.30
2007,01,15,00,17,-4.30
2007,01,15,00,18,-4.30
2007,01,15,00,19,-4.30
2007,01,15,00,20,-4.40
2007,01,15,00,21,-4.40
2007,01,15,00,22,-4.40
2007,01,15,00,23,-4.40
2007,01,15,00,24,-4.40
2007,01,15,00,25,-4.40
2007,01,15,00,26,-4.40
2007,01,15,00,27,-4.50
2007,01,15,00,28,-4.50
2007,01,15,00,29,-4.50
2007,01,15,00,30,-4.50
2007,01,15,00,31,-4.50
2007,01,15,00,32,-4.50
2007,01,15,00,33,-4.50
2007,01,15,00,34,-4.60
2007,01,15,00,35,-4.60
2007,01,15,00,36,-4.60
2007,01,15,00,37,-4.60
2007,01,15,00,38,-4.60
2007,01,15,00,39,-4.60
2007,01,15,00,40,-4.60
2007,01,15,00,41,-4.60
2007,01,15,00,42,-4.60
2007,01,15,00,43,-4.60
2007,01,15,00,44,-4.60
2007,01,15,00,45,-4.60
2007,01,15,00,46,-4.60
2007,01,15,00,47,-4.60
2007,01,15,00,48,-4.60
2007,01,15,00,49,-4.60
2007,01,15,00,50,-4.60
2007,01,15,00,51,-4.60
2007,01,15,00,52,-4.60
2007,01,15,00,53,-4.60
2007,01,15,00,54,-4.60
2007,01,15,00,55,-4.60
2007,01,15,00,56,-4.60
2007,01,15,00,57,-4.60
2007,01,15,00,58,-4.60
2007,01,15,00,59,-4.50
2007,01,15,01,00,-4.50
2007,01,15,01,01,-4.50
2007,01,15,01,02,-4.40
2007,01,15,01,03,-4.40
2007,01,15,01,04,-4.40
2007,01,15,01,05,-4.40
2007,01,15,01,06,-4.40
2007,01,15,01,07,-4.40
2007,01,15,01,08,-4.40
2007,01,15,01,09,-4.40
2007,01,15,01,10,-4.40
2007,01,15,01,11,-4.40
2007,01,15,01,12,-4.40
2007,01,15,01,13,-4.40
2007,01,15,01,14,-4.40
2007,01,15,01,15,-4.30
2007,01,15,01,16,-4.40
2007,01,15,01,17,-4.40
2007,01,15,01,18,-4.40
2007,01,15,01,19,-4.40
2007,01,15,01,20,-4.40
2007,01,15,01,21,-4.40
2007,01,15,01,22,-4.40
2007,01,15,01,23,-4.40
2007,01,15,01,24,-4.40
2007,01,15,01,25,-4.40
2007,01,15,01,26,-4.40
2007,01,15,01,27,-4.40
2007,01,15,01,28,-4.30
2007,01,15,01,29,-4.30
2007,01,15,01,30,-4.30
2007,01,15,01,31,-4.30
2007,01,15,01,32,-4.30
2007,01,15,01,33,-4.30
2007,01,15,01,34,-4.30
2007,01,15,01,35,-4.30
2007,01,15,01,36,-4.30
2007,01,15,01,37,-4.30
2007,01,15,01,38,-4.30
2007,01,15,01,39,-4.30
2007,01,15,01,40,-4.30
2007,01,15,01,41,-4.30
2007,01,15,01,42,-4.30
2007,01,15,01,43,-4.30
2007,01,15,01,44,-4.40
2007,01,15,01,45,-4.40
2007,01,15,01,46,-4.40
2007,01,15,01,47,-4.40
2007,01,15,01,48,-4.40
2007,01,15,01,49,-4.50
2007,01,15,01,50,-4.50
2007,01,15,01,51,-4.50
2007,01,15,01,52,-4.50
2007,01,15,01,53,-4.40
2007,01,15,01,54,-4.40
2007,01,15,01,55,-4.40
2007,01,15,01,56,-4.40
2007,01,15,01,57,-4.40
2007,01,15,01,58,-4.40
2007,01,15,01,59,-4.40
2007,01,15,02,00,-4.50
2007,01,15,02,01,-4.50
2007,01,15,02,02,-4.50
2007,01,15,02,03,-4.50
2007,01,15,02,04,-4.50
2007,01,15,02,05,-4.50
2007,01,15,02,06,-4.60
2007,01,15,02,07,-4.60
2007,01,15,02,08,-4.60
2007,01,15,02,09,-4.60
2007,01,15,02,10,-4.60
2007,01,15,02,11,-4.60
2007,01,15,02,12,-4.70
2007,01,15,02,13,-4.70
2007,01,15,02,14,-4.70
2007,01,15,02,15,-4.70
2007,01,15,02,16,-4.70
2007,01,15,02,17,-4.70
2007,01,15,02,18,-4.70
2007,01,15,02,19,-4.70
2007,01,15,02,20,-4.70
2007,01,15,02,21,-4.70
2007,01,15,02,22,-4.70
2007,01,15,02,23,-4.80
2007,01,15,02,24,-4.80
2007,01,15,02,25,-4.80
2007,01,15,02,26,-4.80
2007,01,15,02,27,-4.80
2007,01,15,02,28,-4.80
2007,01,15,02,29,-4.80
2007,01,15,02,30,-4.90
2007,01,15,02,31,-4.80
2007,01,15,02,32,-4.80
2007,01,15,02,33,-4.80
2007,01,15,02,34,-4.80
2007,01,15,02,35,-4.80
2007,01,15,02,36,-4.80
2007,01,15,02,37,-4.80
2007,01,15,02,38,-4.80
2007,01,15,02,39,-4.80
2007,01,15,02,40,-4.80
2007,01,15,02,41,-4.80
2007,01,15,02,42,-4.80
2007,01,15,02,43,-4.80
2007,01,15,02,44,-4.80
2007,01,15,02,45,-4.80
2007,01,15,02,46,-4.90
2007,01,15,02,47,-4.90
2007,01,15,02,48,-4.90
2007,01,15,02,49,-4.90
2007,01,15,02,50,-4.90
2007,01,15,02,51,-4.90
2007,01,15,02,52,-4.90
2007,01,15,02,53,-4.90
2007,01,15,02,54,-4.90
2007,01,15,02,55,-4.90
2007,01,15,02,56,-4.90
2007,01,15,02,57,-4.90
2007,01,15,02,58,-5.00
2007,01,15,02,59,-5.00
2007,01,15,03,00,-5.00
2007,01,15,03,01,-5.00
2007,01,15,03,02,-5.00
2007,01,15,03,03,-5.10
2007,01,15,03,04,-5.10
2007,01,15,03,05,-5.10
2007,01,15,03,06,-5.10
2007,01,15,03,07,-5.10
2007,01,15,03,08,-5.10
2007,01,15,03,09,-5.10
2007,01,15,03,10,-5.00
2007,01,15,03,11,-5.00
2007,01,15,03,12,-5.00
2007,01,15,03,13,-5.00
2007,01,15,03,14,-5.00
2007,01,15,03,15,-4.90
2007,01,15,03,16,-4.90
2007,01,15,03,17,-4.90
2007,01,15,03,18,-4.90
2007,01,15,03,19,-4.90
2007,01,15,03,20,-4.90
2007,01,15,03,21,-4.90
2007,01,15,03,22,-4.90
2007,01,15,03,23,-4.90
2007,01,15,03,24,-5.00
2007,01,15,03,25,-5.00
2007,01,15,03,26,-5.00
2007,01,15,03,27,-5.00
2007,01,15,03,28,-5.00
2007,01,15,03,29,-5.10
2007,01,15,03,30,-5.10
2007,01,15,03,31,-5.10
2007,01,15,03,32,-5.10
2007,01,15,03,33,-5.10
2007,01,15,03,34,-5.10
2007,01,15,03,35,-5.20
2007,01,15,03,36,-5.20
2007,01,15,03,37,-5.20
2007,01,15,03,38,-5.20
2007,01,15,03,39,-5.20
2007,01,15,03,40,-5.20
2007,01,15,03,41,-5.20
2007,01,15,03,42,-5.20
2007,01,15,03,43,-5.20
2007,01,15,03,44,-5.20
2007,01,15,03,45,-5.30
2007,01,15,03,46,-5.30
2007,01,15,03,47,-5.30
2007,01,15,03,48,-5.30
2007,01,15,03,49,-5.30
2007,01,15,03,50,-5.30
2007,01,15,03,51,-5.30
2007,01,15,03,52,-5.30
2007,01,15,03,53,-5.30
2007,01,15,03,54,-5.30
2007,01,15,03,55,-5.30
2007,01,15,03,56,-5.30
2007,01,15,03,57,-5.30
2007,01,15,03,58,-5.30
2007,01,15,03,59,-5.30
2007,01,15,04,00,-5.30
2007,01,15,04,01,-5.30
2007,01,15,04,02,-5.30
2007,01,15,04,03,-5.30
2007,01,15,04,04,-5.30
2007,01,15,04,05,-5.30
2007,01,15,04,06,-5.30
2007,01,15,04,07,-5.30
2007,01,15,04,08,-5.30
2007,01,15,04,09,-5.30
2007,01,15,04,10,-5.30
2007,01,15,04,11,-5.30
2007,01,15,04,12,-5.30
2007,01,15,04,13,-5.30
2007,01,15,04,14,-5.30
2007,01,15,04,15,-5.30
2007,01,15,04,16,-5.30
2007,01,15,04,17,-5.30
2007,01,15,04,18,-5.30
2007,01,15,04,19,-5.30
2007,01,15,04,20,-5.30
2007,01,15,04,21,-5.30
2007,01,15,04,22,-5.30
2007,01,15,04,23,-5.30
2007,01,15,04,24,-5.30
2007,01,15,04,25,-5.30
2007,01,15,04,26,-5.30
2007,01,15,04,27,-5.30
2007,01,15,04,28,-5.30
2007,01,15,04,29,-5.30
2007,01,15,04,30,-5.30
2007,01,15,04,31,-5.30
2007,01,15,04,32,-5.30
2007,01,15,04,33,-5.30
2007,01,15,04,34,-5.30
2007,01,15,04,35,-5.30
2007,01,15,04,36,-5.30
2007,01,15,04,37,-5.30
2007,01,15,04,38,-5.30
2007,01,15,04,39,-5.30
2007,01,15,04,40,-5.30
2007,01,15,04,41,-5.30
2007,01,15,04,42,-5.30
2007,01,15,04,43,-5.30
2007,01,15,04,44,-5.20
2007,01,15,04,45,-5.20
2007,01,15,04,46,-5.20
2007,01,15,04,47,-5.20
2007,01,15,04,48,-5.20
2007,01,15,04,49,-5.20
2007,01,15,04,50,-5.20
2007,01,15,04,51,-5.20
2007,01,15,04,52,-5.10
2007,01,15,04,53,-5.10
2007,01,15,04,54,-5.10
2007,01,15,04,55,-5.10
2007,01,15,04,56,-5.10
2007,01,15,04,57,-5.10
2007,01,15,04,58,-5.10
2007,01,15,04,59,-5.10
2007,01,15,05,00,-5.10
2007,01,15,05,01,-5.10
2007,01,15,05,02,-5.10
2007,01,15,05,03,-5.10
2007,01,15,05,04,-5.10
2007,01,15,05,05,-5.10
2007,01,15,05,06,-5.20
2007,01,15,05,07,-5.20
2007,01,15,05,08,-5.20
2007,01,15,05,09,-5.20
2007,01,15,05,10,-5.20
2007,01,15,05,11,-5.20
2007,01,15,05,12,-5.20
2007,01,15,05,13,-5.20
2007,01,15,05,14,-5.20
2007,01,15,05,15,-5.30
2007,01,15,05,16,-5.30
2007,01,15,05,17,-5.30
2007,01,15,05,18,-5.30
2007,01,15,05,19,-5.30
2007,01,15,05,20,-5.30
2007,01,15,05,21,-5.30
2007,01,15,05,22,-5.30
2007,01,15,05,23,-5.30
2007,01,15,05,24,-5.30
2007,01,15,05,25,-5.30
2007,01,15,05,26,-5.30
2007,01,15,05,27,-5.20
2007,01,15,05,28,-5.20
2007,01,15,05,29,-5.20
2007,01,15,05,30,-5.20
2007,01,15,05,31,-5.10
2007,01,15,05,32,-5.10
2007,01,15,05,33,-5.10
2007,01,15,05,34,-5.10
2007,01,15,05,35,-5.10
2007,01,15,05,36,-5.10
2007,01,15,05,37,-5.10
2007,01,15,05,38,-5.10
2007,01,15,05,39,-5.10
2007,01,15,05,40,-5.10
2007,01,15,05,41,-5.10
2007,01,15,05,42,-5.10
2007,01,15,05,43,-5.10
2007,01,15,05,44,-5.10
2007,01,15,05,45,-5.10
2007,01,15,05,46,-5.10
2007,01,15,05,47,-5.10
2007,01,15,05,48,-5.10
2007,01,15,05,49,-5.10
2007,01,15,05,50,-5.10
2007,01,15,05,51,-5.10
2007,01,15,05,52,-5.10
2007,01,15,05,53,-5.10
2007,01,15,05,54,-5.00
2007,01,15,05,55,-5.00
2007,01,15,05,56,-5.00
2007,01,15,05,57,-5.00
2007,01,15,05,58,-5.00
2007,01,15,05,59,-5.00
2007,01,15,06,00,-5.00
2007,01,15,06,01,-5.00
2007,01,15,06,02,-5.00
2007,01,15,06,03,-5.00
2007,01,15,06,04,-5.00
2007,01,15,06,05,-5.00
2007,01,15,06,06,-5.00
2007,01,15,06,07,-5.00
2007,01,15,06,08,-5.00
2007,01,15,06,09,-5.00
2007,01,15,06,10,-5.00
2007,01,15,06,11,-5.00
2007,01,15,06,12,-5.00
2007,01,15,06,13,-5.00
2007,01,15,06,14,-5.00
2007,01,15,06,15,-5.00
2007,01,15,06,16,-5.10
2007,01,15,06,17,-5.10
2007,01,15,06,18,-5.10
2007,01,15,06,19,-5.10
2007,01,15,06,20,-5.10
2007,01,15,06,21,-5.10
2007,01,15,06,22,-5.10
2007,01,15,06,23,-5.10
2007,01,15,06,24,-5.10
2007,01,15,06,25,-5.10
2007,01,15,06,26,-5.10
2007,01,15,06,27,-5.10
2007,01,15,06,28,-5.20
2007,01,15,06,29,-5.20
2007,01,15,06,30,-5.20
2007,01,15,06,31,-5.20
2007,01,15,06,32,-5.20
2007,01,15,06,33,-5.20
2007,01,15,06,34,-5.20
2007,01,15,06,35,-5.20
2007,01,15,06,36,-5.20
2007,01,15,06,37,-5.20
2007,01,15,06,38,-5.20
2007,01,15,06,39,-5.20
2007,01,15,06,40,-5.20
2007,01,15,06,41,-5.20
2007,01,15,06,42,-5.20
2007,01,15,06,43,-5.20
2007,01,15,06,44,-5.20
2007,01,15,06,45,-5.30
2007,01,15,06,46,-5.30
2007,01,15,06,47,-5.30
2007,01,15,06,48,-5.30
2007,01,15,06,49,-5.30
2007,01,15,06,50,-5.40
2007,01,15,06,51,-5.40
2007,01,15,06,52,-5.40
2007,01,15,06,53,-5.40
2007,01,15,06,54,-5.40
2007,01,15,06,55,-5.40
2007,01,15,06,56,-5.40
2007,01,15,06,57,-5.40
2007,01,15,06,58,-5.40
2007,01,15,06,59,-5.40
2007,01,15,07,00,-5.40
2007,01,15,07,01,-5.40
2007,01,15,07,02,-5.40
2007,01,15,07,03,-5.40
2007,01,15,07,04,-5.40
2007,01,15,07,05,-5.40
2007,01,15,07,06,-5.40
2007,01,15,07,07,-5.40
2007,01,15,07,08,-5.50
2007,01,15,07,09,-5.50
2007,01,15,07,10,-5.50
2007,01,15,07,11,-5.50
2007,01,15,07,12,-5.50
2007,01,15,07,13,-5.60
2007,01,15,07,14,-5.60
2007,01,15,07,15,-5.60
2007,01,15,07,16,-5.60
2007,01,15,07,17,-5.60
2007,01,15,07,18,-5.60
2007,01,15,07,19,-5.60
2007,01,15,07,20,-5.60
2007,01,15,07,21,-5.60
2007,01,15,07,22,-5.70
2007,01,15,07,23,-5.70
2007,01,15,07,24,-5.70
2007,01,15,07,25,-5.60
2007,01,15,07,26,-5.60
2007,01,15,07,27,-5.60
2007,01,15,07,28,-5.60
2007,01,15,07,29,-5.60
2007,01,15,07,30,-5.60
2007,01,15,07,31,-5.60
2007,01,15,07,32,-5.60
2007,01,15,07,33,-5.60
2007,01,15,07,34,-5.60
2007,01,15,07,35,-5.60
2007,01,15,07,36,-5.60
2007,01,15,07,37,-5.60
2007,01,15,07,38,-5.50
2007,01,15,07,39,-5.50
2007,01,15,07,40,-5.50
2007,01,15,07,41,-5.50
2007,01,15,07,42,-5.50
2007,01,15,07,43,-5.40
2007,01,15,07,44,-5.50
2007,01,15,07,45,-5.40
2007,01,15,07,46,-5.40
2007,01,15,07,47,-5.40
2007,01,15,07,48,-5.40
2007,01,15,07,49,-5.40
2007,01,15,07,50,-5.40
2007,01,15,07,51,-5.40
2007,01,15,07,52,-5.30
2007,01,15,07,53,-5.30
2007,01,15,07,54,-5.30
2007,01,15,07,55,-5.30
2007,01,15,07,56,-5.30
2007,01,15,07,57,-5.30
2007,01,15,07,58,-5.30
2007,01,15,07,59,-5.30
2007,01,15,08,00,-5.30
2007,01,15,08,01,-5.30
2007,01,15,08,02,-5.30
2007,01,15,08,03,-5.30
2007,01,15,08,04,-5.30
2007,01,15,08,05,-5.30
2007,01,15,08,06,-5.30
2007,01,15,08,07,-5.30
2007,01,15,08,08,-5.20
2007,01,15,08,09,-5.20
2007,01,15,08,10,-5.20
2007,01,15,08,11,-5.20
2007,01,15,08,12,-5.20
2007,01,15,08,13,-5.20
2007,01,15,08,14,-5.20
2007,01,15,08,15,-5.20
2007,01,15,08,16,-5.20
2007,01,15,08,17,-5.20
2007,01,15,08,18,-5.20
2007,01,15,08,19,-5.20
2007,01,15,08,20,-5.20
2007,01,15,08,21,-5.20
2007,01,15,08,22,-5.20
2007,01,15,08,23,-5.20
2007,01,15,08,24,-5.20
2007,01,15,08,25,-5.10
2007,01,15,08,26,-5.10
2007,01,15,08,27,-5.10
2007,01,15,08,28,-5.00
2007,01,15,08,29,-5.00
2007,01,15,08,30,-5.00
2007,01,15,08,31,-4.90
2007,01,15,08,32,-4.90
2007,01,15,08,33,-4.90
2007,01,15,08,34,-4.90
2007,01,15,08,35,-4.90
2007,01,15,08,36,-4.90
2007,01,15,08,37,-4.90
2007,01,15,08,38,-4.90
2007,01,15,08,39,-4.90
2007,01,15,08,40,-4.90
2007,01,15,08,41,-4.90
2007,01,15,08,42,-4.90
2007,01,15,08,43,-4.90
2007,01,15,08,44,-4.90
2007,01,15,08,45,-4.80
2007,01,15,08,46,-4.80
2007,01,15,08,47,-4.80
2007,01,15,08,48,-4.80
2007,01,15,08,49,-4.80
2007,01,15,08,50,-4.80
2007,01,15,08,51,-4.80
2007,01,15,08,52,-4.80
2007,01,15,08,53,-4.80
2007,01,15,08,54,-4.80
2007,01,15,08,55,-4.80
2007,01,15,08,56,-4.80
2007,01,15,08,57,-4.80
2007,01,15,08,58,-4.80
2007,01,15,08,59,-4.80
2007,01,15,09,00,-4.80
2007,01,15,09,01,-4.80
2007,01,15,09,02,-4.80
2007,01,15,09,03,-4.80
2007,01,15,09,04,-4.80
2007,01,15,09,05,-4.70
2007,01,15,09,06,-4.70
2007,01,15,09,07,-4.70
2007,01,15,09,08,-4.70
2007,01,15,09,09,-4.70
2007,01,15,09,10,-4.70
2007,01,15,09,11,-4.70
2007,01,15,09,12,-4.70
2007,01,15,09,13,-4.70
2007,01,15,09,14,-4.70
2007,01,15,09,15,-4.70
2007,01,15,09,16,-4.70
2007,01,15,09,17,-4.70
2007,01,15,09,18,-4.70
2007,01,15,09,19,-4.70
2007,01,15,09,20,-4.70
2007,01,15,09,21,-4.60
2007,01,15,09,22,-4.60
2007,01,15,09,23,-4.60
2007,01,15,09,24,-4.60
2007,01,15,09,25,-4.60
2007,01,15,09,26,-4.50
2007,01,15,09,27,-4.50
2007,01,15,09,28,-4.50
2007,01,15,09,29,-4.40
2007,01,15,09,30,-4.40
2007,01,15,09,31,-4.40
2007,01,15,09,32,-4.40
2007,01,15,09,33,-4.30
2007,01,15,09,34,-4.30
2007,01,15,09,35,-4.30
2007,01,15,09,36,-4.20
2007,01,15,09,37,-4.20
2007,01,15,09,38,-4.20
2007,01,15,09,39,-4.10
2007,01,15,09,40,-4.10
2007,01,15,09,41,-4.00
2007,01,15,09,42,-4.00
2007,01,15,09,43,-3.90
2007,01,15,09,44,-3.90
2007,01,15,09,45,-3.90
2007,01,15,09,46,-3.80
2007,01,15,09,47,-3.80
2007,01,15,09,48,-3.80
2007,01,15,09,49,-3.80
2007,01,15,09,50,-3.70
2007,01,15,09,51,-3.70
2007,01,15,09,52,-3.70
2007,01,15,09,53,-3.70
2007,01,15,09,54,-3.70
2007,01,15,09,55,-3.70
2007,01,15,09,56,-3.70
2007,01,15,09,57,-3.60
2007,01,15,09,58,-3.60
2007,01,15,09,59,-3.60
2007,01,15,10,00,-3.50
2007,01,15,10,01,-3.50
2007,01,15,10,02,-3.50
2007,01,15,10,03,-3.50
2007,01,15,10,04,-3.50
2007,01,15,10,05,-3.40
2007,01,15,10,06,-3.40
2007,01,15,10,07,-3.40
2007,01,15,10,08,-3.40
2007,01,15,10,09,-3.40
2007,01,15,10,10,-3.30
2007,01,15,10,11,-3.30
2007,01,15,10,12,-3.30
2007,01,15,10,13,-3.30
2007,01,15,10,14,-3.30
2007,01,15,10,15,-3.30
2007,01,15,10,16,-3.20
2007,01,15,10,17,-3.20
2007,01,15,10,18,-3.20
2007,01,15,10,19,-3.10
2007,01,15,10,20,-3.10
2007,01,15,10,21,-3.00
2007,01,15,10,22,-3.00
2007,01,15,10,23,-2.90
2007,01,15,10,24,-2.90
2007,01,15,10,25,-2.80
2007,01,15,10,26,-2.80
2007,01,15,10,27,-2.80
2007,01,15,10,28,-2.70
2007,01,15,10,29,-2.70
2007,01,15,10,30,-2.70
2007,01,15,10,31,-2.70
2007,01,15,10,32,-2.60
2007,01,15,10,33,-2.60
2007,01,15,10,34,-2.60
2007,01,15,10,35,-2.50
2007,01,15,10,36,-2.50
2007,01,15,10,37,-2.40
2007,01,15,10,38,-2.40
2007,01,15,10,39,-2.30
2007,01,15,10,40,-2.30
2007,01,15,10,41,-2.30
2007,01,15,10,42,-2.20
2007,01,15,10,43,-2.20
2007,01,15,10,44,-2.20
2007,01,15,10,45,-2.10
2007,01,15,10,46,-2.10
2007,01,15,10,47,-2.00
2007,01,15,10,48,-2.00
2007,01,15,10,49,-2.00
2007,01,15,10,50,-1.90
2007,01,15,10,51,-1.90
2007,01,15,10,52,-1.80
2007,01,15,10,53,-1.80
2007,01,15,10,54,-1.70
2007,01,15,10,55,-1.70
2007,01,15,10,56,-1.60
2007,01,15,10,57,-1.60
2007,01,15,10,58,-1.60
2007,01,15,10,59,-1.60
2007,01,15,11,00,-1.60
2007,01,15,11,01,-1.60
2007,01,15,11,02,-1.60
2007,01,15,11,03,-1.60
2007,01,15,11,04,-1.60
2007,01,15,11,05,-1.50
2007,01,15,11,06,-1.50
2007,01,15,11,07,-1.40
2007,01,15,11,08,-1.40
2007,01,15,11,09,-1.30
2007,01,15,11,10,-1.30
2007,01,15,11,11,-1.20
2007,01,15,11,12,-1.20
2007,01,15,11,13,-1.10
2007,01,15,11,14,-1.00
2007,01,15,11,15,-0.90
2007,01,15,11,16,-0.90
2007,01,15,11,17,-0.80
2007,01,15,11,18,-0.70
2007,01,15,11,19,-0.60
2007,01,15,11,20,-0.50
2007,01,15,11,21,-0.40
2007,01,15,11,22,-0.30
2007,01,15,11,23,-0.20
2007,01,15,11,24,-0.10
2007,01,15,11,25,0.00
2007,01,15,11,26,0.10
2007,01,15,11,27,0.10
2007,01,15,11,28,0.10
2007,01,15,11,29,0.10
2007,01,15,11,30,0.00
2007,01,15,11,31,-0.10
2007,01,15,11,32,-0.20
2007,01,15,11,33,-0.20
2007,01,15,11,34,-0.20
2007,01,15,11,35,-0.20
2007,01,15,11,36,-0.30
2007,01,15,11,37,-0.30
2007,01,15,11,38,-0.20
2007,01,15,11,39,-0.20
2007,01,15,11,40,-0.20
2007,01,15,11,41,-0.10
2007,01,15,11,42,-0.10
2007,01,15,11,43,0.00
2007,01,15,11,44,0.00
2007,01,15,11,45,0.10
2007,01,15,11,46,0.20
2007,01,15,11,47,0.20
2007,01,15,11,48,0.20
2007,01,15,11,49,0.30
2007,01,15,11,50,0.30
2007,01,15,11,51,0.30
2007,01,15,11,52,0.30
2007,01,15,11,53,0.20
2007,01,15,11,54,0.20
2007,01,15,11,55,0.20
2007,01,15,11,56,0.10
2007,01,15,11,57,0.10
2007,01,15,11,58,0.00
2007,01,15,11,59,0.00
2007,01,15,12,00,-0.10
2007,01,15,12,01,-0.10
2007,01,15,12,02,-0.10
2007,01,15,12,03,-0.10
2007,01,15,12,04,-0.10
2007,01,15,12,05,-0.10
2007,01,15,12,06,0.00
2007,01,15,12,07,0.00
2007,01,15,12,08,0.10
2007,01,15,12,09,0.20
2007,01,15,12,10,0.20
2007,01,15,12,11,0.30
2007,01,15,12,12,0.40
2007,01,15,12,13,0.40
2007,01,15,12,14,0.50
2007,01,15,12,15,0.60
2007,01,15,12,16,0.70
2007,01,15,12,17,0.80
2007,01,15,12,18,0.90
2007,01,15,12,19,0.90
2007,01,15,12,20,0.90
2007,01,15,12,21,0.90
2007,01,15,12,22,0.90
2007,01,15,12,23,0.90
2007,01,15,12,24,0.90
2007,01,15,12,25,0.90
2007,01,15,12,26,0.80
2007,01,15,12,27,0.80
2007,01,15,12,28,0.80
2007,01,15,12,29,0.90
2007,01,15,12,30,0.90
2007,01,15,12,31,1.00
2007,01,15,12,32,1.00
2007,01,15,12,33,1.00
2007,01,15,12,34,1.10
2007,01,15,12,35,1.10
2007,01,15,12,36,1.10
2007,01,15,12,37,1.20
2007,01,15,12,38,1.20
2007,01,15,12,39,1.30
2007,01,15,12,40,1.30
2007,01,15,12,41,1.30
2007,01,15,12,42,1.30
2007,01,15,12,43,1.30
2007,01,15,12,44,1.30
2007,01,15,12,45,1.40
2007,01,15,12,46,1.40
2007,01,15,12,47,1.40
2007,01,15,12,48,1.50
2007,01,15,12,49,1.40
2007,01,15,12,50,1.40
2007,01,15,12,51,1.40
2007,01,15,12,52,1.50
2007,01,15,12,53,1.50
2007,01,15,12,54,1.50
2007,01,15,12,55,1.60
2007,01,15,12,56,1.60
2007,01,15,12,57,1.60
2007,01,15,12,58,1.60
2007,01,15,12,59,1.60
2007,01,15,13,00,1.60
2007,01,15,13,01,1.60
2007,01,15,13,02,1.50
2007,01,15,13,03,1.40
2007,01,15,13,04,1.40
2007,01,15,13,05,1.30
2007,01,15,13,06,1.30
2007,01,15,13,07,1.30
2007,01,15,13,08,1.30
2007,01,15,13,09,1.30
2007,01,15,13,10,1.40
2007,01,15,13,11,1.40
2007,01,15,13,12,1.50
2007,01,15,13,13,1.50
2007,01,15,13,14,1.50
2007,01,15,13,15,1.60
2007,01,15,13,16,1.60
2007,01,15,13,17,1.60
2007,01,15,13,18,1.70
2007,01,15,13,19,1.70
2007,01,15,13,20,1.70
2007,01,15,13,21,1.70
2007,01,15,13,22,1.80
2007,01,15,13,23,1.80
2007,01,15,13,24,1.80
2007,01,15,13,25,1.80
2007,01,15,13,26,1.80
2007,01,15,13,27,1.80
2007,01,15,13,28,1.90
2007,01,15,13,29,1.90
2007,01,15,13,30,1.90
2007,01,15,13,31,1.90
2007,01,15,13,32,1.90
2007,01,15,13,33,1.90
2007,01,15,13,34,2.00
2007,01,15,13,35,2.00
2007,01,15,13,36,2.10
2007,01,15,13,37,2.10
2007,01,15,13,38,2.20
2007,01,15,13,39,2.20
2007,01,15,13,40,2.20
2007,01,15,13,41,2.30
2007,01,15,13,42,2.30
2007,01,15,13,43,2.30
2007,01,15,13,44,2.30
2007,01,15,13,45,2.30
2007,01,15,13,46,2.30
2007,01,15,13,47,2.20
2007,01,15,13,48,2.20
2007,01,15,13,49,2.20
2007,01,15,13,50,2.20
2007,01,15,13,51,2.20
2007,01,15,13,52,2.20
2007,01,15,13,53,2.20
2007,01,15,13,54,2.10
2007,01,15,13,55,2.10
2007,01,15,13,56,2.10
2007,01,15,13,57,2.10
2007,01,15,13,58,2.00
2007,01,15,13,59,2.00
2007,01,15,14,00,2.00
2007,01,15,14,01,2.10
2007,01,15,14,02,2.10
2007,01,15,14,03,2.10
2007,01,15,14,04,2.20
2007,01,15,14,05,2.20
2007,01,15,14,06,2.30
2007,01,15,14,07,2.30
2007,01,15,14,08,2.30
2007,01,15,14,09,2.40
2007,01,15,14,10,2.40
2007,01,15,14,11,2.40
2007,01,15,14,12,2.50
2007,01,15,14,13,2.50
2007,01,15,14,14,2.50
2007,01,15,14,15,2.60
2007,01,15,14,16,2.60
2007,01,15,14,17,2.60
2007,01,15,14,18,2.70
2007,01,15,14,19,2.70
2007,01,15,14,20,2.70
2007,01,15,14,21,2.80
2007,01,15,14,22,2.80
2007,01,15,14,23,2.80
2007,01,15,14,24,2.90
2007,01,15,14,25,2.90
2007,01,15,14,26,2.90
2007,01,15,14,27,2.80
2007,01,15,14,28,2.70
2007,01,15,14,29,2.70
2007,01,15,14,30,2.60
2007,01,15,14,31,2.60
2007,01,15,14,32,2.50
2007,01,15,14,33,2.50
2007,01,15,14,34,2.40
2007,01,15,14,35,2.40
2007,01,15,14,36,2.40
2007,01,15,14,37,2.40
2007,01,15,14,38,2.40
2007,01,15,14,39,2.40
2007,01,15,14,40,2.40
2007,01,15,14,41,2.40
2007,01,15,14,42,2.40
2007,01,15,14,43,2.40
2007,01,15,14,44,2.40
2007,01,15,14,45,2.40
2007,01,15,14,46,2.40
2007,01,15,14,47,2.30
2007,01,15,14,48,2.30
2007,01,15,14,49,2.20
2007,01,15,14,50,2.20
2007,01,15,14,51,2.20
2007,01,15,14,52,2.10
2007,01,15,14,53,2.10
2007,01,15,14,54,2.10
2007,01,15,14,55,2.00
2007,01,15,14,56,2.00
2007,01,15,14,57,1.90
2007,01,15,14,58,1.90
2007,01,15,14,59,1.90
2007,01,15,15,00,1.90
2007,01,15,15,01,1.90
2007,01,15,15,02,1.90
2007,01,15,15,03,1.90
2007,01,15,15,04,1.90
2007,01,15,15,05,1.90
2007,01,15,15,06,1.90
2007,01,15,15,07,2.00
2007,01,15,15,08,2.00
2007,01,15,15,09,2.00
2007,01,15,15,10,2.10
2007,01,15,15,11,2.10
2007,01,15,15,12,2.10
2007,01,15,15,13,2.10
2007,01,15,15,14,2.10
2007,01,15,15,15,2.10
2007,01,15,15,16,2.10
2007,01,15,15,17,2.10
2007,01,15,15,18,2.10
2007,01,15,15,19,2.10
2007,01,15,15,20,2.10
2007,01,15,15,21,2.10
2007,01,15,15,22,2.10
2007,01,15,15,23,2.10
2007,01,15,15,24,2.10
2007,01,15,15,25,2.10
2007,01,15,15,26,2.10
2007,01,15,15,27,2.10
2007,01,15,15,28,2.00
2007,01,15,15,29,2.00
2007,01,15,15,30,1.90
2007,01,15,15,31,1.90
2007,01,15,15,32,1.80
2007,01,15,15,33,1.80
2007,01,15,15,34,1.80
2007,01,15,15,35,1.80
2007,01,15,15,36,1.70
2007,01,15,15,37,1.70
2007,01,15,15,38,1.70
2007,01,15,15,39,1.70
2007,01,15,15,40,1.70
2007,01,15,15,41,1.60
2007,01,15,15,42,1.60
2007,01,15,15,43,1.60
2007,01,15,15,44,1.60
2007,01,15,15,45,1.60
2007,01,15,15,46,1.50
2007,01,15,15,47,1.50
2007,01,15,15,48,1.40
2007,01,15,15,49,1.40
2007,01,15,15,50,1.40
2007,01,15,15,51,1.30
2007,01,15,15,52,1.30
2007,01,15,15,53,1.30
2007,01,15,15,54,1.30
2007,01,15,15,55,1.30
2007,01,15,15,56,1.30
2007,01,15,15,57,1.30
2007,01,15,15,58,1.20
2007,01,15,15,59,1.20
2007,01,15,16,00,1.10
2007,01,15,16,01,1.10
2007,01,15,16,02,1.10
2007,01,15,16,03,1.00
2007,01,15,16,04,1.00
2007,01,15,16,05,0.90
2007,01,15,16,06,0.90
2007,01,15,16,07,0.80
2007,01,15,16,08,0.80
2007,01,15,16,09,0.80
2007,01,15,16,10,0.70
2007,01,15,16,11,0.70
2007,01,15,16,12,0.70
2007,01,15,16,13,0.70
2007,01,15,16,14,0.60
2007,01,15,16,15,0.60
2007,01,15,16,16,0.60
2007,01,15,16,17,0.60
2007,01,15,16,18,0.50
2007,01,15,16,19,0.50
2007,01,15,16,20,0.50
2007,01,15,16,21,0.50
2007,01,15,16,22,0.40
2007,01,15,16,23,0.40
2007,01,15,16,24,0.40
2007,01,15,16,25,0.40
2007,01,15,16,26,0.40
2007,01,15,16,27,0.30
2007,01,15,16,28,0.30
2007,01,15,16,29,0.30
2007,01,15,16,30,0.30
2007,01,15,16,31,0.30
2007,01,15,16,32,0.30
2007,01,15,16,33,0.30
2007,01,15,16,34,0.20
2007,01,15,16,35,0.20
2007,01,15,16,36,0.20
2007,01,15,16,37,0.20
2007,01,15,16,38,0.20
2007,01,15,16,39,0.20
2007,01,15,16,40,0.10
2007,01,15,16,41,0.10
2007,01,15,16,42,0.10
2007,01,15,16,43,0.10
2007,01,15,16,44,0.10
2007,01,15,16,45,0.10
2007,01,15,16,46,0.10
2007,01,15,16,47,0.00
2007,01,15,16,48,0.00
2007,01,15,16,49,0.00
2007,01,15,16,50,0.00
2007,01,15,16,51,0.00
2007,01,15,16,52,0.00
2007,01,15,16,53,0.00
2007,01,15,16,54,0.00
2007,01,15,16,55,0.00
2007,01,15,16,56,0.00
2007,01,15,16,57,0.00
2007,01,15,16,58,0.00
2007,01,15,16,59,0.00
2007,01,15,17,00,0.00
2007,01,15,17,01,-0.10
2007,01,15,17,02,-0.10
2007,01,15,17,03,-0.10
2007,01,15,17,04,-0.10
2007,01,15,17,05,-0.10
2007,01,15,17,06,-0.10
2007,01,15,17,07,-0.10
2007,01,15,17,08,-0.10
2007,01,15,17,09,-0.10
2007,01,15,17,10,-0.10
2007,01,15,17,11,-0.10
2007,01,15,17,12,-0.10
2007,01,15,17,13,-0.10
2007,01,15,17,14,-0.10
2007,01,15,17,15,-0.20
2007,01,15,17,16,-0.20
2007,01,15,17,17,-0.20
2007,01,15,17,18,-0.20
2007,01,15,17,19,-0.20
2007,01,15,17,20,-0.20
2007,01,15,17,21,-0.20
2007,01,15,17,22,-0.20
2007,01,15,17,23,-0.20
2007,01,15,17,24,-0.20
2007,01,15,17,25,-0.10
2007,01,15,17,26,-0.20
2007,01,15,17,27,-0.10
2007,01,15,17,28,-0.10
2007,01,15,17,29,-0.10
2007,01,15,17,30,-0.10
2007,01,15,17,31,-0.10
2007,01,15,17,32,-0.10
2007,01,15,17,33,-0.10